Find Starlink 31723

NORAD ID: 59553 Int'l Des: 2024-074 Owner: SPXS Country: US Constellation: starlink operational
LEOCIRCULAR

現在のビュー

3D地球を読み込み中...

About Starlink 31723

Starlink 31723 (NORAD 59553) is a starlink constellation satellite (v2 mini) launched Apr 18, 2024 by SPXS of US. It operates in LEO, CIRCULAR orbit with a mass of 730.00 kg.

Starlink 31723について

説明を読み込み中...

次回通過

Passes for default location (London). Set your location on the main map for personalized predictions.

高度履歴

Loading altitude history...

軌道要素

1 59553U 24074V 26168.92087638 -.00000494 00000-0 -84384-5 0 9991
2 59553 42.9988 137.4423 0001042 261.5430 98.5303 15.27576716121347
Epoch: Jun 17, 2026 • Age: 11 hours

現在のステータス

高度 495.3 km
速度 7.62 km/s
衛星直下点 -42.03°S, 23.12°E
打ち上げ日 Apr 18, 2024
運用期間 2.1 years
タイプ internet

技術仕様

分類 Payload
質量 730.00 kg
乾燥質量 700.00 kg
総質量 730.00 kg
長さ 0.30 m
直径 4.10 m
スパン 29.00 m
形状 Box + pan
製造者 SPXS
バスタイプ Starlink V2M
フェーズステータス In Orbit
所有者/国 SPXS/US

Most Searched